Regional Weather Roundup
Issued by NWS

Home | Current Version | Previous Version | Graphics & Text | Print | Product List | Glossary On
Versions: 1 2 3 4 5 6 7 8 9 10 11 12 13 14 15 16 17 18 19 20 21 22 23 24 25 26 27 28 29 30 31 32 33 34 35 36 37 38 39 40 41 42 43 44 45 46 47 48 49 50
000
ASUS43 KMPX 231501
RWRMN
WEATHER ROUNDUP FOR MINNESOTA
NATIONAL WEATHER SERVICE TWIN CITIES/CHANHASSEN MN
1000 AM CDT THU MAR 23 2017


NOTE: "FAIR" INDICATES FEW OR NO CLOUDS BELOW 12,000 FEET WITH NO
SIGNIFICANT WEATHER AND/OR OBSTRUCTIONS TO VISIBILITY. N/A MEANS
CURRENT SKY AND/OR WEATHER CONDITIONS ARE NOT AVAILABLE.

MNZ060>063-068>070-231600-
   Twin Cities Metro

CITY           SKY/WX    TMP DP  RH WIND       PRES   REMARKS
TWIN CITIES    CLOUDY    38  21  50 S18       30.09F
ST PAUL        CLOUDY    38  23  55 SE15G23   30.11F
CRYSTAL        CLOUDY    39  20  46 S16G26    30.07F
BLAINE         CLOUDY    39  23  52 SE15G22   30.07F
LAKEVILLE      CLOUDY    36  25  64 SE14G20   30.08F
EDEN PRAIRIE   CLOUDY    39  23  52 SE15      30.07F
SOUTH ST PAUL  CLOUDY    38  22  53 S13       30.10S
LAKE ELMO      CLOUDY    37  23  56 S18       30.11F
$$
MNZ001>005-007-008-013>017-022>024-027-028-231600-
   Northwest Minnesota

CITY           SKY/WX    TMP DP  RH WIND       PRES   REMARKS
BEMIDJI        CLOUDY    37  22  56 S17       29.92F
HALLOCK        CLOUDY    34  28  80 S14       29.84F WCI  24
ROSEAU         CLOUDY    37  27  65 S16       29.87S
WARROAD        CLOUDY    36  25  64 S9        29.88F
THIEF RVR FALL CLOUDY    37  25  61 S15G22    29.87F
CROOKSTON      CLOUDY    37  27  65 S17       29.87F
FOSSTON        CLOUDY    37  23  56 S15       29.89S
DETROIT LAKES  MOSUNNY   37  27  65 S15G23    29.92R
MOORHEAD       MOSUNNY   37  27  65 S23       29.90R
PARK RAPIDS    CLOUDY    37  21  52 S17       29.93F
MAHNOMEN       FAIR      38  25  58 S16       29.89R
$$
MNZ006-009>011-018-025>026-231600-
   North Central Minnesota

CITY           SKY/WX    TMP DP  RH WIND       PRES   REMARKS
BAUDETTE       MOSUNNY   36  21  54 S14       29.89F
FLAG ISLAND    CLOUDY    28  25  86 S14       29.87F WCI  17
INTL FALLS     CLOUDY    36  22  56 S10G20    29.95F
WASKISH        CLOUDY    37  23  56 S12G18    29.91F
BIG FORK       CLOUDY    36  21  55 S8G20     29.97F
LONGVILLE      CLOUDY    36  21  55 S14       29.97F
GRAND RAPIDS   CLOUDY    34  21  59 S16G23    30.01F WCI  24
CRANE LAKE     CLOUDY    34  23  64 S7        30.02F WCI  28
ORR            CLOUDY    34  21  60 S13G21    29.96F WCI  25
COOK           CLOUDY    34  23  64 S10G20    30.00F WCI  26
WALKER         CLOUDY    36  21  55 S13G18    29.93F
$$
MNZ012-019>021-037-231600-
   Northeast Minnesota

CITY           SKY/WX    TMP DP  RH WIND       PRES   REMARKS
DULUTH         CLOUDY    32  25  75 S12       30.05F WCI  23
ELY            CLOUDY    30  23  74 S9G18     30.04S WCI  22
HIBBING        CLOUDY    32  21  64 S13G21    30.01F WCI  22
EVELETH        CLOUDY    32  19  59 S13       30.04F WCI  23
DULUTH HARBOR  CLOUDY    36  27  69 CALM      30.11F
TWO HARBORS    CLOUDY    34  28  80 SE3       30.08F
SILVER BAY     CLOUDY    32  28  86 S3        30.09F
GRAND MARAIS     N/A     33  30  88 S16       30.15F WCI  23
G MARAIS ARPRT SNOW      27  23  86 S8G16     30.09F VSB 1/4 WCI  18
$$
MNZ029>031-032-039>041-046>048-054>057-064-231600-
   West Central Minnesota

CITY           SKY/WX    TMP DP  RH WIND       PRES   REMARKS
FERGUS FALLS   MOSUNNY   37  25  60 S21G26    29.96R
WHEATON        CLOUDY    41  25  52 SE24      29.90F
MORRIS         CLOUDY    37  25  60 SE22      29.91F
ALEXANDRIA     CLOUDY    37  23  56 S16       29.96F
ELBOW LAKE     CLOUDY    37  24  61 SE23      29.92S
WADENA         CLOUDY    36  23  60 S14       29.94F
GLENWOOD       CLOUDY    37  23  56 SE21G26   29.96F
APPLETON       CLOUDY    39  25  56 SE15G22   29.91F
BENSON         CLOUDY    39  19  45 S15G24    29.96F
ORTONVILLE     CLOUDY    39  27  60 SE16G23   29.89F
MADISON        CLOUDY    43  28  56 SE18      29.91F
WILLMAR        CLOUDY    37  27  65 SE15G23   29.99F
$$
MNZ033>034-036-042>043-049>051-058-059-231600-
   Central Minnesota

CITY           SKY/WX    TMP DP  RH WIND       PRES   REMARKS
ST CLOUD       CLOUDY    38  24  57 SE17      30.03F
SAUK CENTRE    CLOUDY    37  24  59 SE20      29.97F
PAYNESVILLE      N/A     37  24  59 SE17G23   30.00F
AITKIN         CLOUDY    37  19  48 S14G22    30.00F
PINE RIVER     CLOUDY    36  23  60 S12       30.01F
BRAINERD       CLOUDY    37  22  54 S17G24    29.99F
STAPLES        CLOUDY    36  21  55 S13G21    29.96F
LONG PRAIRIE   CLOUDY    36  23  60 SE14G20   29.98F
LITTLE FALLS   CLOUDY    37  21  52 S10G22    30.01F
LITCHFIELD     CLOUDY    37  25  60 SE10G18   30.02F
BUFFALO        CLOUDY    38  23  55 SE10G16   30.06F
MAPLE LAKE     CLOUDY    39  26  61 SE12G20   30.05S
HUTCHINSON     CLOUDY    38  27  64 SE13G20   30.04S
$$
MNZ037-044-045-052-053-231600-
   East Central Minnesota

CITY           SKY/WX    TMP DP  RH WIND       PRES   REMARKS
PRINCETON      CLOUDY    39  21  48 SE13      30.06S
MORA           CLOUDY    36  21  55 S8G16     30.08S
CAMBRIDGE      CLOUDY    39  25  56 SE9G22    30.06S
RUSH CITY      CLOUDY    36  24  61 S10       30.08F
MOOSE LAKE     CLOUDY    34  23  64 S9        30.04F WCI  26
HINCKLEY       CLOUDY    36  23  60 S10G17    30.08F
CLOQUET        CLOUDY    34  21  60 S5        30.06S WCI  30
MCGREGOR       CLOUDY    34  23  64 S12G18    30.04S WCI  25
$$
MNZ071>073-080-081-089-090-097-098-231600-
   Southwest Minnesota

CITY           SKY/WX    TMP DP  RH WIND       PRES   REMARKS
MONTEVIDEO     CLOUDY    37  25  60 S17G29    29.95F
GRANITE FALLS  CLOUDY    39  26  59 SE18      29.96F
CANBY          CLOUDY    42  27  54 SE17      29.91F
MARSHALL       MOSUNNY   41  24  51 S21G30    29.92F
REDWOOD FALLS  CLOUDY    38  24  57 SE18G28   29.99F
OLIVIA         CLOUDY    36  27  69 S16       29.99F
PIPESTONE      CLOUDY    39  21  48 S16G24    29.89F
WINDOM         CLOUDY    39  25  56 SE16G22   29.97F
WORTHINGTON    CLOUDY    38  23  55 SE18G25   29.94F
JACKSON        MOSUNNY   37  25  60 SE20G26   29.98F
TRACY          MOSUNNY   40  26  55 S18G32    29.92F
SLAYTON        CLOUDY    37  25  62 SE25      29.93F
$$
MNZ065>067-074>077-082>085-091>093-231600-
   South Central Minnesota

CITY           SKY/WX    TMP DP  RH WIND       PRES   REMARKS
MANKATO        CLOUDY    37  25  61 SE18G26   30.05F
NEW ULM        CLOUDY    37  25  60 SE15      30.02F
ST JAMES       CLOUDY    36  27  69 SE17      30.02F
FAIRMONT       CLOUDY    37  25  61 S21G26    30.01F
GLENCOE        CLOUDY    38  28  67 SE13G18   30.04F
FARIBAULT      CLOUDY    36  25  64 SE15G21   30.08F
OWATONNA       CLOUDY    36  23  60 SE18G24   30.07F
WASECA         CLOUDY    36  27  69 SE21G26   30.07F
ALBERT LEA     CLOUDY    34  25  69 SE20G25   30.07F WCI  22
$$
MNZ078>079-086>088-094>096-231600-
   Southeast Minnesota

CITY           SKY/WX    TMP DP  RH WIND       PRES   REMARKS
ROCHESTER      CLOUDY    35  23  61 SE20G29   30.11F WCI  24
RED WING       CLOUDY    39  19  45 SE8       30.12F
STANTON        CLOUDY    38  23  55 S14G21    30.08F
DODGE CENTER   CLOUDY    34  23  64 SE24      30.10F WCI  21
WINONA         CLOUDY    36  23  60 SE13      30.18F
AUSTIN         CLOUDY    34  23  64 S12G18    30.10F WCI  25
PRESTON        CLOUDY    34  21  58 S17       30.14F WCI  24
$$
ABBREVIATIONS USED IN REMARKS
   TC - TEMPERATURES IN CELSIUS
  WCI - WIND CHILL INDEX
   HX - HEAT INDEX
  VSB - VISIBILITY
$$



USA.gov is the U.S. government's official web portal to all federal, state and local government web resources and services.